Regional Weather Roundup
Issued by NWS

Home | Current Version | Previous Version | Graphics & Text | Print | Product List | Glossary On
Versions: 1 2 3 4 5 6 7 8 9 10 11 12 13 14 15 16 17 18 19 20 21 22 23 24 25 26 27 28 29 30 31 32 33 34 35 36 37 38 39 40 41 42 43 44 45 46 47 48 49 50
000
ASUS44 KMEG 301610
RWRTN
TENNESSEE HOURLY STATE WEATHER ROUNDUP
NATIONAL WEATHER SERVICE MEMPHIS TN
1100 AM CDT THU MAR 30 2017

TNZ002-004-019-021-049-052-054-088>092-301700-
WEST TENNESSEE

CITY           SKY/WX    TMP DP  RH WIND       PRES   REMARKS
MEMPHIS INTL   PTSUNNY   72  61  68 S21G28    29.68F
NWS MEMPHIS      N/A     70 N/A N/A MISG        N/A
JACKSON        PTSUNNY   73  59  61 SW22G38   29.70S
DYERSBURG      PTSUNNY   72  59  63 S15G22    29.66F
SOMERVILLE     CLOUDY    70  59  68 S17G32    29.70F
BOLIVAR        CLOUDY    72  57  60 S16G36    29.70F
PARIS          PTSUNNY   72  54  53 SW21G32   29.69F
HUNTINGDON     PTSUNNY   73  55  53 SW16G29   29.69F
SAVANNAH       SUNNY     72  54  53 SW14G26   29.73F
$$

TNZ008-025-027-028-033-062-065-066-301700-
NORTH MIDDLE TENNESSEE

CITY           SKY/WX    TMP DP  RH WIND       PRES   REMARKS
NASHVILLE      CLOUDY    75  57  53 SW12G21   29.76S
PORTLAND       MOSUNNY   73  59  60 S13G22    29.77R
CLARKSVILLE    CLOUDY    71  56  58 S15       29.71S
SMYRNA         CLOUDY    75  60  59 S9        29.77S
COOKEVILLE     SUNNY     77  52  41 S14G21    29.77S
GALLATIN       MOSUNNY   75  57  53 S15G28    29.78F
CROSSVILLE     SUNNY     68  51  54 SE10G23   29.84F
$$

TNZ061-075-076-078-094-096-097-301700-
SOUTH MIDDLE TENNESSEE

CITY           SKY/WX    TMP DP  RH WIND       PRES   REMARKS
FAYETTEVILLE   MOSUNNY   72  61  68 S18G26    29.83R
TULLAHOMA      SUNNY     73  55  53 S16       29.82R
WINCHESTER     SUNNY     70  59  68 S13       29.82R
MCMINNVILLE    SUNNY     77  55  47 S12       29.81R
COLUMBIA       SUNNY     72  63  73 S13       29.75F
SHELBYVILLE    SUNNY     75  61  60 S13       29.79S
$$

TNZ017-018-042-046-047-301700-
NORTHEAST TENNESSEE

CITY           SKY/WX    TMP DP  RH WIND       PRES   REMARKS
TRI CITIES     MOSUNNY   74  56  53 S21G28    29.96F
ELIZABETHTON   PTSUNNY   72  55  56 E7        29.97F
$$

TNZ012-013-036-069-073-074-301700-
CENTRAL EAST TENNESSEE

CITY           SKY/WX    TMP DP  RH WIND       PRES   REMARKS
KNOXVILLE      CLOUDY    73  54  51 S18G28    29.91F
OAK RIDGE      CLOUDY    74  51  44 S14G25    29.91F
DOWNTOWN KNOXV SUNNY     73  57  56 VRB6      29.92F
GATLINBURG     PTSUNNY   72  55  56 W5        29.92F
MORRISTOWN     CLOUDY    70  55  60 CALM      29.94F
JACKSBORO      SUNNY     72  55  56 S10G18    29.91F
$$

TNZ083-085-099-301700-
SOUTHEAST TENNESSEE

CITY           SKY/WX    TMP DP  RH WIND       PRES   REMARKS
CHATTANOOGA    PTSUNNY   74  58  57 S13G20    29.89F
$$

SKY/WX REPORTED AS FAIR MEANS FEW OR NO CLOUDS BELOW
12 THOUSAND FEET.




USA.gov is the U.S. government's official web portal to all federal, state and local government web resources and services.